This is the latest recevied weather packets stored in our database for station/object KC9DNQ-3. If no packets are shown the sender has not sent any weather packets the latest 1 day(s).
| Time | Temp. | Humidity | Pressure | Rain* | Wind** | Luminosity | Snow |
|---|---|---|---|---|---|---|---|
| 1778100009 | 15° C | 39% | 1013.1 hPa | 0 mm | - | 717 W/m² | - |
| 1778097609 | 14.44° C | 39% | 1013.4 hPa | 0 mm | - | 717 W/m² | - |
| 1778097009 | 14.44° C | 42% | 1013.4 hPa | 0 mm | - | 670 W/m² | - |
| 1778095811 | 14.44° C | 40% | 1013.6 hPa | 0 mm | - | 800 W/m² | - |
| 1778093109 | 13.33° C | 43% | 1013.7 hPa | 0 mm | - | 341 W/m² | - |
| 1778092510 | 13.33° C | 48% | 1013.6 hPa | 0 mm | - | 1155 W/m² | - |
| 1778091909 | 13.89° C | 43% | 1013.6 hPa | 0 mm | - | 380 W/m² | - |
| 1778091309 | 13.33° C | 44% | 1013.5 hPa | 0 mm | - | 531 W/m² | - |
| 1778090709 | 13.33° C | 45% | 1013.7 hPa | 0 mm | - | 738 W/m² | - |
| 1778089210 | 13.33° C | 42% | 1013.9 hPa | 0 mm | - | 939 W/m² | - |
| 1778088309 | 13.89° C | 41% | 1013.9 hPa | 0 mm | - | 619 W/m² | - |
| 1778086510 | 13.33° C | 41% | 1013.7 hPa | 0 mm | - | 935 W/m² | - |
| 1778086210 | 13.33° C | 46% | 1013.7 hPa | 0 mm | - | 559 W/m² | - |
| 1778085910 | 12.78° C | 44% | 1013.6 hPa | 0 mm | - | 309 W/m² | - |
| 1778083510 | 13.89° C | 41% | 1013.5 hPa | 0 mm | - | 932 W/m² | - |
| 1778083209 | 13.33° C | 45% | 1013.5 hPa | 0 mm | - | 969 W/m² | - |
| 1778082909 | 12.78° C | 40% | 1013.5 hPa | 0 mm | - | 759 W/m² | - |
| 1778081409 | 12.78° C | 45% | 1013.5 hPa | 0 mm | - | 570 W/m² | - |
| 1778081109 | 12.78° C | 52% | 1013.4 hPa | 0 mm | - | 462 W/m² | - |
| 1778080509 | 12.22° C | 50% | 1013.5 hPa | 0 mm | - | 392 W/m² | - |
| 1778079609 | 11.67° C | 55% | 1013.6 hPa | 0 mm | - | 424 W/m² | - |
| 1778079010 | 11.11° C | 58% | 1013.7 hPa | 0 mm | - | 338 W/m² | - |
| 1778078410 | 11.11° C | 58% | 1013.5 hPa | 0 mm | - | 355 W/m² | - |
| 1778077510 | 11.11° C | 59% | 1013.5 hPa | 0 mm | - | 339 W/m² | - |
| 1778076609 | 10.56° C | 61% | 1013.5 hPa | 0 mm | - | 302 W/m² | - |
* Rain latest hour (hover to see other rain measurements)
** Current wind speed in m/s (hover to see current wind gust speed)